Regional Weather Roundup
Issued by NWS Newport/Morehead, NC

Home | Current Version | Previous Version | Text Only | Print | Product List | Glossary On
Versions: 1 2 3 4 5 6 7 8 9 10 11 12 13 14 15 16 17 18 19 20 21 22 23 24 25 26 27 28 29 30 31 32 33 34 35 36 37 38 39 40 41 42 43 44 45 46 47 48 49 50
000
ASUS42 KMHX 241325
RWRMHX
WEATHER ROUNDUP FOR EASTERN NORTH CAROLINA
NATIONAL WEATHER SERVICE NEWPORT/MOREHEAD CITY NC
900 AM EDT SUN MAR 24 2019

NOTE: "FAIR" INDICATES FEW OR NO CLOUDS BELOW 12,000 FEET
WITH NO SIGNIFICANT WEATHER AND/OR OBSTRUCTIONS TO VISIBILITY

NCZ015>017-031-032-045>047-102-103-241400-
NORTH COAST

CITY           SKY/WX    TMP DP  RH WIND       PRES   REMARKS
EDENTON        FAIR      50  40  68 S7        30.37F
ELIZABETH CITY FAIR      50  41  71 S5        30.37R
KITTY HAWK     FAIR      50  28  42 CALM      30.36R
MANTEO         FAIR      51  29  42 SE3       30.38R

$$

NCZ045>047-081-094-103-104-241400-
CENTRAL COAST

CITY           SKY/WX    TMP DP  RH WIND       PRES   REMARKS
FRISCO         FAIR      55  40  56 VRB6      30.37R

$$

NCZ095-097-098-100-101-241400-
SOUTHERN COAST

CITY           SKY/WX    TMP DP  RH WIND       PRES   REMARKS
BEAUFORT       FAIR      52  36  54 E3        30.36R
CEDAR ISLAND   NOT AVBL
JACKSONVILLE   FAIR      47  41  80 CALM      30.36R
PINEY ISLAND   FAIR      53  45  74 E5        30.36S
WILMINGTON     FAIR      49  43  80 CALM      30.36R


$$

NCZ011>013-027>030-043-044-078>080-089-090>093-098-241400-
COASTAL PLAIN

CITY           SKY/WX    TMP DP  RH WIND       PRES   REMARKS
AHOSKIE        FAIR      42  33  69 SE3       30.35S
CLINTON        FAIR      44  40  85 CALM      30.36S
ELIZABETHTOWN  FAIR      43  35  73 CALM      30.36R
GOLDSBORO      NOT AVBL
GREENVILLE     FAIR      45  36  70 CALM      30.35F
HAVELOCK       FAIR      48  44  86 CALM      30.37R
KENANSVILLE    FAIR      45  39  81 CALM      30.36R
KINSTON        SUNNY     45  36  70 CALM      30.37R
NEW BERN       FAIR      47  41  80 CALM      30.38R
RICHLANDS      FAIR      47  42  83 CALM      30.37R
ROCKY MOUNT    FAIR      41  38  89 CALM      30.35S
WASHINGTON     FAIR      45  37  75 CALM      30.37S
WHITEVILLE     FAIR      45  40  83 CALM      30.34S

$$

AMZ130-135-150-152-154-156-158-170-250-252-270-ANZ085-086-088-633-658-670-241400-
MARINE OBSERVATIONS

STATION/POSITION TIME  TEMP    WIND        PRES    WAVE   SWELL
                       AIR SEA DIR/SP/G            HT/PER HT/PER
                 (UTC) (F)     (DEG/KT/KT) (MB)    (FT/S) (FT/S)
64 E VA BEACH    1250   48 47  320/  4/  4 1028.1    2/ 6   2/ 6
DUCK             1300   49 48  160/  6/  6 1027.9
2 E DUCK         1230      47                N/A     2/ 4
10 NE DUCK       1245      47                N/A     2/ 8
OREGON INLET     1300   52 52  100/  5/  6 1028.5
13E OREGON INLT  1246      50                N/A     3/ 6   2/ 6
HATTERAS CG      1300   54 57   50/  5/  7 1028.0
DIAMOND BUOY     NOT AVBL
CAPE LOOKOUT     1300   55      30/  4/  5 1028.5
BEAUFORT LAB     1300   52 57   20/  2/  4 1028.7
30 SE NEW RVR IN 1308   61 60   CALM  /  2 1027.0
30 SE NEW RVR IN 1300      60                N/A     3/10   2/11
27 SE WRIGHTSVLE 1308   58 60   40/  2/  4 1028.0
5 SE WRIGHTSVLE  NOT AVBL
27 SE WRIGHTSVL  1308   58 60   40/  2/  4 1028.0
FRYING PAN BUOY  1300   62 67  100/  2/  4 1028.4
225 S CAPE HAT   1300           80/  8/ 12 1027.8
41 SE CHARLESTON 1300      70  130/  8/ 12 1027.7

$$



USA.gov is the U.S. government's official web portal to all federal, state and local government web resources and services.